DELTA 1 DEB, 10765

Orbit data source: Space-Track

DELTA 1 DEB, 10765 is space debris in SSO originally from a launch on Thu, 29 Jul 1976 UTC launched from the Air Force Western Test Range (AFWTR). Debris objects in space refer to the collection of defunct objects orbiting the Earth. Examples of debris include non-operational satellites, rocket bodies, and fragments generated from explosions, collisions, or faulty payload assembly.

Loading next visibility...
Identifier
10765, 1976-077BN
Orbit
SSO
Country
Flag of USUS
Related business
Manufacturer
Unknown
Mission
Spacecraft
Bus & Motor
Unknown
Mass
Unknown
Launch date (UTC)
1976-07-29 (49 years ago)
Launch vehicle
Unknown
Launch site
Air Force Western Test Range (AFWTR)
Object type
Payload
Rocket body
Debris
Shape & HBR
Unknown shape, 0.5 m
Radar Cross Section
Medium (>0.1 m² and <1 m²)

Expand to show TLE details & history
Last TLE update: 13 hours ago

TLE from 13 hours ago
0 DELTA 1 DEB
1 10765U 76077BN  25351.57151444 -.00000043  00000-0 -11429-4 0  9993
2 10765 102.0065 194.0995 0130752 327.2064  45.0768 12.16523045194478
Epoch: 2025-12-17T13:42Z
TLE epoch observation values (Epoch: 2025-12-17T13:42:58.847Z)
Latitude
13.02818°
Longitude
-100.89205°
Altitude
1,536.45 km
Speed
7.131 km/s
True Right ascension
12h 45m 10s
True Declination
12° 57' 37"
Sunlit
Object was in daylight at epoch
Visualization orbit readout
Latitude
Unknown
Longitude
Unknown
Altitude
Unknown
Speed
Unknown
Apparent Right ascension
Unknown
Apparent Declination
Unknown
Sunlit
N/A
Visualization observer readout
Local Sidereal Time
01:58:10
Azimuth
Unknown
Elevation
Unknown
Doppler factor
Unknown
Orbital elements
Apogee altitude
1,709.712 km
Perigee altitude
1,500.942 km
Semi-major axis
7,983.464 km
Eccentricity
0.01308
Inclination
102.0065°
RAAN
194.0995°
Arg. of periapsis
327.2064°
True anomaly
46.15°
Mean anomaly
45.0768°
Eccentric anomaly
45.61216°
Mean motion
3.04268 °/min
Orbital period
118.32 mins
BSTAR
-0.000011429
Loading maneuver chart data...
Computing Atmospheric mass density...
Loading historical data...
Loading historical data...
Loading historical data...
Loading historical data...
Loading historical data...
Loading historical data...
Loading historical data...

Documentation

Showing up to 5 results
|